timestamp,surface_pressure_avg,surface_temp_avg,battery_voltage,lat,long
2022-07-24 00:09:00+00:00,253.5731,19.1,11.93,47.84626,-54.09684
2022-07-24 00:19:00+00:00,249.7698,19.1,11.93,47.84626,-54.09684
2022-07-24 00:29:00+00:00,242.3365,19.19,11.93,47.84626,-54.09684
2022-07-24 00:39:00+00:00,237.8197,19.3,11.93,47.84626,-54.09684
2022-07-24 00:49:00+00:00,236.5347,19.2,11.93,47.84626,-54.09684
2022-07-24 00:59:00+00:00,233.9548,19.2,11.93,47.84626,-54.09684
2022-07-24 01:09:00+00:00,228.7798,19.2,11.93,47.84626,-54.09684
2022-07-24 01:19:00+00:00,226.1298,19.24,11.93,47.84626,-54.09684
2022-07-24 01:29:00+00:00,226.9797,19.3,11.93,47.84626,-54.09684
2022-07-24 01:39:00+00:00,227.8381,19.3,11.93,47.84626,-54.09684
2022-07-24 01:49:00+00:00,225.1931,19.3,11.93,47.84626,-54.09684
2022-07-24 01:59:00+00:00,223.1181,19.35,11.93,47.84626,-54.09684
2022-07-24 02:09:00+00:00,223.203,19.4,11.93,47.84626,-54.09684
2022-07-24 02:19:01+00:00,222.6131,19.5,11.93,47.84626,-54.09684
2022-07-24 02:29:01+00:00,220.7431,19.5,11.93,47.84626,-54.09684
2022-07-24 02:39:01+00:00,221.5414,19.55,11.93,47.84626,-54.09684
2022-07-24 02:49:01+00:00,224.1115,19.59,11.93,47.84626,-54.09684
2022-07-24 02:59:01+00:00,223.9331,19.6,11.93,47.84626,-54.09684
2022-07-24 03:09:01+00:00,223.6531,19.59,11.93,47.84626,-54.09684
2022-07-24 03:19:00+00:00,226.7364,19.6,11.93,47.84626,-54.09684
2022-07-24 03:29:00+00:00,228.9298,19.6,11.93,47.84626,-54.09684
2022-07-24 03:39:00+00:00,227.8464,19.59,11.93,47.84626,-54.09684
2022-07-24 03:49:00+00:00,226.5614,19.58,11.93,47.84626,-54.09684
2022-07-24 03:59:00+00:00,228.5614,19.59,11.93,47.84626,-54.09684
2022-07-24 04:09:00+00:00,232.5614,19.6,11.93,47.84626,-54.09684
2022-07-24 04:19:00+00:00,233.6998,19.6,11.93,47.84626,-54.09684
2022-07-24 04:29:00+00:00,235.3014,19.6,11.93,47.84626,-54.09684
2022-07-24 04:39:00+00:00,240.1581,19.6,11.93,47.84626,-54.09684
2022-07-24 04:49:00+00:00,243.5898,19.6,11.93,47.84626,-54.09684
2022-07-24 04:59:00+00:00,244.8081,19.6,11.93,47.84626,-54.09684
2022-07-24 05:09:00+00:00,247.8948,19.66,11.93,47.84626,-54.09684
2022-07-24 05:19:01+00:00,252.2914,19.6,11.93,47.84626,-54.09684
2022-07-24 05:29:01+00:00,255.2248,19.6,11.93,47.84626,-54.09684
2022-07-24 05:39:01+00:00,258.0831,19.6,11.93,47.84626,-54.09684
2022-07-24 05:49:01+00:00,263.413,19.6,11.93,47.84626,-54.09684
2022-07-24 05:59:01+00:00,269.2531,19.59,11.93,47.84626,-54.09684
2022-07-24 06:09:01+00:00,274.3564,19.65,11.93,47.84626,-54.09684
2022-07-24 06:19:01+00:00,278.5414,19.6,11.93,47.84626,-54.09684
2022-07-24 06:29:01+00:00,284.4564,19.6,11.93,47.84626,-54.09684
2022-07-24 06:39:01+00:00,290.0314,19.6,11.93,47.84626,-54.09684
2022-07-24 06:49:01+00:00,291.9897,19.6,11.93,47.84626,-54.09684
2022-07-24 06:59:01+00:00,291.8397,19.6,11.93,47.84626,-54.09684
2022-07-24 07:09:01+00:00,293.5414,19.6,11.93,47.84626,-54.09684
2022-07-24 07:19:00+00:00,295.7313,19.6,11.93,47.84626,-54.09684
2022-07-24 07:29:00+00:00,295.7813,19.6,11.93,47.84626,-54.09684
2022-07-24 07:39:00+00:00,296.1847,19.6,11.93,47.84626,-54.09684
2022-07-24 07:49:00+00:00,298.063,19.6,11.93,47.84626,-54.09684
2022-07-24 07:59:00+00:00,299.8498,19.6,11.93,47.84626,-54.09684
2022-07-24 08:09:00+00:00,301.1813,19.57,11.93,47.84626,-54.09684
2022-07-24 08:19:00+00:00,302.6146,19.5,11.93,47.84626,-54.09684
2022-07-24 08:29:00+00:00,303.0614,19.6,11.93,47.84626,-54.09684
2022-07-24 08:39:00+00:00,301.798,19.6,11.93,47.84626,-54.09684
2022-07-24 08:49:00+00:00,301.5764,19.6,11.93,47.84626,-54.09684
2022-07-24 08:59:00+00:00,302.7364,19.66,11.93,47.84626,-54.09684
2022-07-24 09:09:00+00:00,301.313,19.6,11.93,47.84626,-54.09684
2022-07-24 09:19:00+00:00,298.683,19.6,11.93,47.84626,-54.09684
2022-07-24 09:29:00+00:00,299.6497,19.6,11.93,47.84626,-54.09684
2022-07-24 09:39:00+00:00,300.7729,19.6,11.93,47.84626,-54.09684
2022-07-24 09:49:00+00:00,298.1797,19.6,11.93,47.84626,-54.09684
2022-07-24 09:59:00+00:00,296.5447,19.6,11.93,47.84626,-54.09684
2022-07-24 10:09:00+00:00,296.5847,19.6,11.93,47.84626,-54.09684
2022-07-24 10:19:01+00:00,291.8264,19.62,11.93,47.84626,-54.09684
2022-07-24 10:29:01+00:00,286.8248,19.63,11.93,47.84626,-54.09684
2022-07-24 10:39:01+00:00,284.1298,19.64,11.93,47.84626,-54.09684
2022-07-24 10:49:01+00:00,281.363,19.65,11.93,47.84626,-54.09684
2022-07-24 10:59:01+00:00,274.9398,19.66,11.93,47.84626,-54.09684
2022-07-24 11:09:01+00:00,270.7214,19.65,11.93,47.84626,-54.09684
2022-07-24 11:19:00+00:00,268.9114,19.66,11.93,47.84626,-54.09684
2022-07-24 11:29:00+00:00,269.3164,19.69,11.93,47.84626,-54.09684
2022-07-24 11:39:00+00:00,263.2947,19.7,11.93,47.84626,-54.09684
2022-07-24 11:49:00+00:00,255.4714,19.8,11.93,47.84626,-54.09684
2022-07-24 11:59:00+00:00,251.9498,19.89,11.93,47.84626,-54.09684
2022-07-24 12:09:00+00:00,249.5414,19.9,11.93,47.84626,-54.09684
2022-07-24 12:19:00+00:00,244.6081,19.96,11.93,47.84626,-54.09684
2022-07-24 12:29:00+00:00,241.6264,20.0,11.93,47.84626,-54.09684
2022-07-24 12:39:00+00:00,242.8881,20.03,11.93,47.84626,-54.09684
2022-07-24 12:49:00+00:00,238.2947,20.0,11.93,47.84626,-54.09684
2022-07-24 12:59:00+00:00,232.9248,20.01,11.93,47.84626,-54.09684
2022-07-24 13:09:00+00:00,232.8464,20.0,11.93,47.84626,-54.09684
2022-07-24 13:19:00+00:00,231.0464,20.0,12.09,47.84626,-54.09684
2022-07-24 13:29:00+00:00,226.2798,20.04,12.09,47.84626,-54.09684
2022-07-24 13:39:00+00:00,222.2214,20.09,12.09,47.84626,-54.09684
2022-07-24 13:49:00+00:00,221.3281,20.1,12.09,47.84626,-54.09684
2022-07-24 13:59:00+00:00,220.1997,20.1,12.09,47.84626,-54.09684
2022-07-24 14:09:00+00:00,218.4664,20.1,12.09,47.84626,-54.09684
2022-07-24 14:19:01+00:00,219.8248,20.1,12.25,47.84626,-54.09684
2022-07-24 14:29:01+00:00,222.6081,20.1,12.25,47.84626,-54.09684
2022-07-24 14:39:01+00:00,223.0214,20.16,12.25,47.84626,-54.09684
2022-07-24 14:49:01+00:00,224.2814,20.19,12.25,47.84626,-54.09684
2022-07-24 14:59:01+00:00,227.8798,20.19,12.25,47.84626,-54.09684
2022-07-24 15:09:01+00:00,229.3481,20.15,12.25,47.84626,-54.09684
2022-07-24 15:19:00+00:00,228.4981,20.1,12.25,47.84626,-54.09684
2022-07-24 15:29:00+00:00,229.9931,20.0,12.25,47.84626,-54.09684
2022-07-24 15:39:00+00:00,233.2264,19.9,12.25,47.84626,-54.09684
2022-07-24 15:49:00+00:00,233.0281,19.89,12.25,47.84626,-54.09684
2022-07-24 15:59:00+00:00,232.6531,19.9,12.25,47.84626,-54.09684
2022-07-24 16:09:00+00:00,235.1447,19.9,12.25,47.84626,-54.09684
2022-07-24 16:19:01+00:00,239.8648,19.9,12.25,47.84626,-54.09684
2022-07-24 16:29:01+00:00,245.1448,19.9,12.25,47.84626,-54.09684
2022-07-24 16:39:01+00:00,248.8531,19.88,12.25,47.84626,-54.09684
2022-07-24 16:49:01+00:00,250.2465,19.8,12.25,47.84626,-54.09684
2022-07-24 16:59:01+00:00,253.8531,19.8,12.25,47.84626,-54.09684
2022-07-24 17:09:01+00:00,258.6547,19.89,12.25,47.84626,-54.09684
2022-07-24 17:19:00+00:00,261.0598,19.9,12.17,47.84626,-54.09684
2022-07-24 17:29:00+00:00,262.2132,19.89,12.17,47.84626,-54.09684
2022-07-24 17:39:00+00:00,267.6997,19.8,12.17,47.84626,-54.09684
2022-07-24 17:49:00+00:00,274.5197,19.79,12.17,47.84626,-54.09684
2022-07-24 17:59:00+00:00,278.6381,19.69,12.17,47.84626,-54.09684
2022-07-24 18:09:00+00:00,281.6248,19.7,12.17,47.84626,-54.09684
2022-07-24 18:19:00+00:00,287.783,19.7,12.17,47.84626,-54.09684
2022-07-24 18:29:00+00:00,292.8747,19.74,12.17,47.84626,-54.09684
2022-07-24 18:39:00+00:00,298.5197,19.78,12.17,47.84626,-54.09684
2022-07-24 18:49:00+00:00,303.693,19.8,12.17,47.84626,-54.09684
2022-07-24 18:59:00+00:00,308.8829,19.8,12.17,47.84626,-54.09684
2022-07-24 19:09:00+00:00,309.938,19.8,12.17,47.84626,-54.09684
2022-07-24 19:19:00+00:00,311.2796,19.8,12.09,47.84626,-54.09684
2022-07-24 19:29:00+00:00,317.9313,19.7,12.09,47.84626,-54.09684
2022-07-24 19:39:00+00:00,324.3363,19.69,12.09,47.84626,-54.09684
2022-07-24 19:49:00+00:00,325.138,19.7,12.09,47.84626,-54.09684
2022-07-24 19:59:00+00:00,325.0063,19.6,12.09,47.84626,-54.09684
2022-07-24 20:09:00+00:00,330.4297,19.5,12.09,47.84626,-54.09684
2022-07-24 20:19:00+00:00,334.7346,19.54,12.09,47.84626,-54.09684
2022-07-24 20:29:00+00:00,335.2679,19.57,12.09,47.84626,-54.09684
2022-07-24 20:39:00+00:00,335.6496,19.3,12.09,47.84626,-54.09684
2022-07-24 20:49:00+00:00,334.8463,19.2,12.09,47.84626,-54.09684
2022-07-24 20:59:00+00:00,332.2213,19.41,12.09,47.84626,-54.09684
2022-07-24 21:09:00+00:00,331.6146,19.5,12.09,47.84626,-54.09684
2022-07-24 21:19:01+00:00,332.213,19.52,12.09,47.84626,-54.09684
2022-07-24 21:29:01+00:00,332.1380000000001,19.6,12.09,47.84626,-54.09684
2022-07-24 21:39:01+00:00,332.7646,19.6,12.09,47.84626,-54.09684
2022-07-24 21:49:01+00:00,334.0630000000001,19.6,12.09,47.84626,-54.09684
2022-07-24 21:59:01+00:00,332.1364,19.5,12.09,47.84626,-54.09684
2022-07-24 22:09:01+00:00,330.048,19.49,12.09,47.84626,-54.09684
2022-07-24 22:19:00+00:00,331.6296,19.5,12.09,47.84626,-54.09684
2022-07-24 22:29:00+00:00,331.1029,19.5,12.09,47.84626,-54.09684
2022-07-24 22:39:00+00:00,326.6663,19.53,12.09,47.84626,-54.09684
2022-07-24 22:49:00+00:00,325.9496,19.58,12.09,47.84626,-54.09684
2022-07-24 22:59:00+00:00,324.8214,19.6,12.09,47.84626,-54.09684
2022-07-24 23:09:00+00:00,318.018,19.6,12.09,47.84626,-54.09684
2022-07-24 23:19:00+00:00,310.8663,19.67,12.01,47.84626,-54.09684
2022-07-24 23:29:00+00:00,307.9697,19.66,12.01,47.84626,-54.09684
2022-07-24 23:39:00+00:00,303.4913,19.69,12.01,47.84626,-54.09684
2022-07-24 23:49:00+00:00,297.9197,19.7,12.01,47.84626,-54.09684
2022-07-24 23:59:00+00:00,291.363,19.7,12.01,47.84626,-54.09684
